timestamp,wind_dir_avg,wind_spd_avg,wind_spd_max_dir,wind_spd_gust,battery_voltage,lat,long
2022-03-25 00:04:00+00:00,337.0,9.94,339.0,11.56,12.49,47.59359,-54.27349
2022-03-25 00:14:01+00:00,353.0,11.03,359.0,12.43,12.41,47.59359,-54.27349
2022-03-25 00:24:01+00:00,353.0,8.43,350.0,9.48,12.41,47.59359,-54.27349
2022-03-25 00:34:01+00:00,355.0,7.62,353.0,9.12,12.41,47.59359,-54.27349
2022-03-25 00:44:01+00:00,356.0,7.49,1.0,8.78,12.41,47.59359,-54.27349
2022-03-25 00:54:01+00:00,348.0,6.5,348.0,7.37,12.41,47.59359,-54.27349
2022-03-25 01:04:01+00:00,349.0,6.87,348.0,8.28,12.41,47.59359,-54.27349
2022-03-25 01:14:01+00:00,355.0,6.07,351.0,6.82,12.41,47.59359,-54.27349
2022-03-25 01:24:01+00:00,347.0,5.71,338.0,6.37,12.41,47.59359,-54.27349
2022-03-25 01:34:01+00:00,339.0,5.05,333.0,5.75,12.41,47.59359,-54.27349
2022-03-25 01:44:01+00:00,352.0,5.36,351.0,5.95,12.41,47.59359,-54.27349
2022-03-25 01:54:01+00:00,340.0,6.04,337.0,7.52,12.41,47.59359,-54.27349
2022-03-25 02:04:01+00:00,334.0,5.16,341.0,6.23,12.41,47.59359,-54.27349
2022-03-25 02:14:00+00:00,335.0,4.93,335.0,5.48,12.33,47.59359,-54.27349
2022-03-25 02:24:00+00:00,335.0,5.16,348.0,6.55,12.33,47.59359,-54.27349
2022-03-25 02:34:00+00:00,325.0,5.76,331.0,6.41,12.33,47.59359,-54.27349
2022-03-25 02:44:00+00:00,322.0,5.35,325.0,6.16,12.33,47.59359,-54.27349
2022-03-25 02:54:00+00:00,310.0,5.06,304.0,6.19,12.33,47.59359,-54.27349
2022-03-25 03:04:00+00:00,300.0,4.6,309.0,5.82,12.33,47.59359,-54.27349
2022-03-25 03:14:01+00:00,325.0,6.45,330.0,7.34,12.33,47.59359,-54.27349
2022-03-25 03:24:01+00:00,338.0,7.29,340.0,8.77,12.33,47.59359,-54.27349
2022-03-25 03:34:01+00:00,335.0,6.13,341.0,7.22,12.33,47.59359,-54.27349
2022-03-25 03:44:01+00:00,340.0,6.78,335.0,8.84,12.33,47.59359,-54.27349
2022-03-25 03:54:01+00:00,346.0,7.74,353.0,9.02,12.33,47.59359,-54.27349
2022-03-25 04:04:01+00:00,348.0,7.96,354.0,9.74,12.33,47.59359,-54.27349
2022-03-25 04:14:00+00:00,349.0,9.16,344.0,11.89,12.33,47.59359,-54.27349
2022-03-25 04:24:00+00:00,349.0,7.72,339.0,9.76,12.33,47.59359,-54.27349
2022-03-25 04:34:00+00:00,0.0,6.4,0.0,7.84,12.33,47.59359,-54.27349
2022-03-25 04:44:00+00:00,0.0,6.38,3.0,7.89,12.33,47.59359,-54.27349
2022-03-25 04:54:00+00:00,359.0,6.25,2.0,7.11,12.33,47.59359,-54.27349
2022-03-25 05:04:00+00:00,356.0,5.42,358.0,6.7,12.33,47.59359,-54.27349
2022-03-25 05:14:00+00:00,352.0,4.9,0.0,5.74,12.25,47.59359,-54.27349
2022-03-25 05:24:00+00:00,324.0,5.82,320.0,7.28,12.25,47.59359,-54.27349
2022-03-25 05:34:00+00:00,325.0,5.79,327.0,6.9,12.25,47.59359,-54.27349
2022-03-25 05:44:00+00:00,322.0,5.95,313.0,7.45,12.25,47.59359,-54.27349
2022-03-25 05:54:00+00:00,318.0,4.43,301.0,6.48,12.25,47.59359,-54.27349
2022-03-25 06:04:00+00:00,319.0,5.24,304.0,6.54,12.25,47.59359,-54.27349
2022-03-25 06:14:00+00:00,322.0,4.86,309.0,5.92,12.25,47.59359,-54.27349
2022-03-25 06:24:00+00:00,354.0,3.45,318.0,5.34,12.25,47.59359,-54.27349
2022-03-25 06:34:00+00:00,1.0,4.59,2.0,5.58,12.25,47.59359,-54.27349
2022-03-25 06:44:00+00:00,331.0,5.67,323.0,7.23,12.25,47.59359,-54.27349
2022-03-25 06:54:00+00:00,331.0,5.1,328.0,6.67,12.25,47.59359,-54.27349
2022-03-25 07:04:00+00:00,358.0,2.92,357.0,3.6,12.25,47.59359,-54.27349
2022-03-25 07:14:01+00:00,49.0,1.36,61.0,2.12,12.17,47.59359,-54.27349
2022-03-25 07:24:01+00:00,18.0,1.92,9.0,2.2,12.17,47.59359,-54.27349
2022-03-25 07:34:01+00:00,313.0,3.18,315.0,4.24,12.17,47.59359,-54.27349
2022-03-25 07:44:01+00:00,298.0,3.23,292.0,5.04,12.17,47.59359,-54.27349
2022-03-25 07:54:01+00:00,316.0,4.37,323.0,5.17,12.17,47.59359,-54.27349
2022-03-25 08:04:01+00:00,305.0,3.68,297.0,5.59,12.17,47.59359,-54.27349
2022-03-25 08:14:00+00:00,297.0,3.84,292.0,5.8,12.17,47.59359,-54.27349
2022-03-25 08:24:00+00:00,339.0,4.09,309.0,6.33,12.17,47.59359,-54.27349
2022-03-25 08:34:00+00:00,314.0,6.32,307.0,7.53,12.17,47.59359,-54.27349
2022-03-25 08:44:00+00:00,322.0,5.67,326.0,6.45,12.17,47.59359,-54.27349
2022-03-25 08:54:00+00:00,312.0,5.83,325.0,7.63,12.17,47.59359,-54.27349
2022-03-25 09:04:00+00:00,305.0,5.4,304.0,6.1,12.17,47.59359,-54.27349
2022-03-25 09:14:01+00:00,307.0,5.34,309.0,5.68,12.17,47.59359,-54.27349
2022-03-25 09:24:01+00:00,318.0,6.65,314.0,8.25,12.17,47.59359,-54.27349
2022-03-25 09:34:01+00:00,13.0,4.94,47.0,6.43,12.17,47.59359,-54.27349
2022-03-25 09:44:01+00:00,34.0,6.92,34.0,8.18,12.17,47.59359,-54.27349
2022-03-25 09:54:01+00:00,23.0,6.12,24.0,7.06,12.17,47.59359,-54.27349
2022-03-25 10:04:01+00:00,2.0,6.72,1.0,7.41,12.17,47.59359,-54.27349
2022-03-25 10:14:00+00:00,358.0,5.48,0.0,6.23,12.49,47.59359,-54.27349
2022-03-25 10:24:00+00:00,349.0,4.51,341.0,5.43,12.49,47.59359,-54.27349
2022-03-25 10:34:00+00:00,304.0,4.04,308.0,4.56,12.49,47.59359,-54.27349
2022-03-25 10:44:00+00:00,307.0,3.98,290.0,6.04,12.49,47.59359,-54.27349
2022-03-25 10:54:00+00:00,291.0,3.56,298.0,4.23,12.49,47.59359,-54.27349
2022-03-25 11:04:00+00:00,298.0,4.48,291.0,6.37,12.49,47.59359,-54.27349
2022-03-25 11:14:01+00:00,301.0,3.58,288.0,4.87,13.92,47.59359,-54.27349
2022-03-25 11:24:01+00:00,278.0,5.64,279.0,6.23,13.92,47.59359,-54.27349
2022-03-25 11:34:01+00:00,285.0,5.19,284.0,5.95,13.92,47.59359,-54.27349
2022-03-25 11:44:01+00:00,305.0,2.75,284.0,4.94,13.92,47.59359,-54.27349
2022-03-25 11:54:01+00:00,336.0,3.95,320.0,4.85,13.92,47.59359,-54.27349
2022-03-25 12:04:01+00:00,331.0,5.35,313.0,7.11,13.92,47.59359,-54.27349
2022-03-25 12:14:00+00:00,352.0,5.04,359.0,6.03,14.32,47.59359,-54.27349
2022-03-25 12:24:00+00:00,342.0,4.94,354.0,5.48,14.32,47.59359,-54.27349
2022-03-25 12:34:00+00:00,339.0,4.39,336.0,4.85,14.32,47.59359,-54.27349
2022-03-25 12:44:00+00:00,354.0,3.78,357.0,4.43,14.32,47.59359,-54.27349
2022-03-25 12:54:00+00:00,347.0,2.64,347.0,3.07,14.32,47.59359,-54.27349
2022-03-25 13:04:00+00:00,321.0,2.72,320.0,3.09,14.32,47.59359,-54.27349
2022-03-25 13:14:01+00:00,353.0,3.01,354.0,3.25,13.92,47.59359,-54.27349
2022-03-25 13:24:01+00:00,24.0,3.45,28.0,3.86,13.92,47.59359,-54.27349
2022-03-25 13:34:01+00:00,33.0,2.2,48.0,2.64,13.92,47.59359,-54.27349
2022-03-25 13:44:01+00:00,63.0,1.71,67.0,2.14,13.92,47.59359,-54.27349
2022-03-25 13:54:01+00:00,146.0,2.54,147.0,2.79,13.92,47.59359,-54.27349
2022-03-25 14:04:01+00:00,132.0,2.53,137.0,2.97,13.92,47.59359,-54.27349
2022-03-25 14:14:00+00:00,171.0,2.9,172.0,3.06,14.24,47.59359,-54.27349
2022-03-25 14:24:00+00:00,189.0,2.84,192.0,3.12,14.24,47.59359,-54.27349
2022-03-25 14:34:00+00:00,182.0,3.45,182.0,3.94,14.24,47.59359,-54.27349
2022-03-25 14:44:00+00:00,214.0,1.73,206.0,1.94,14.24,47.59359,-54.27349
2022-03-25 14:54:00+00:00,256.0,3.11,259.0,3.63,14.24,47.59359,-54.27349
2022-03-25 15:04:00+00:00,256.0,3.36,252.0,3.84,14.24,47.59359,-54.27349
2022-03-25 15:14:01+00:00,241.0,3.19,239.0,3.99,13.68,47.59359,-54.27349
2022-03-25 15:24:01+00:00,219.0,4.95,219.0,5.21,13.68,47.59359,-54.27349
2022-03-25 15:34:01+00:00,198.0,3.82,215.0,4.57,13.68,47.59359,-54.27349
2022-03-25 15:44:01+00:00,184.0,3.49,185.0,3.77,13.68,47.59359,-54.27349
2022-03-25 15:54:01+00:00,144.0,1.69,146.0,1.84,13.68,47.59359,-54.27349
2022-03-25 16:04:01+00:00,128.0,1.23,116.0,1.96,13.68,47.59359,-54.27349
2022-03-25 16:14:01+00:00,285.0,1.83,280.0,2.35,13.68,47.59359,-54.27349
2022-03-25 16:24:01+00:00,189.0,1.62,218.0,2.14,13.68,47.59359,-54.27349
2022-03-25 16:34:01+00:00,163.0,1.18,224.0,2.1,13.68,47.59359,-54.27349
2022-03-25 16:44:01+00:00,283.0,1.99,283.0,2.55,13.68,47.59359,-54.27349
2022-03-25 16:54:01+00:00,216.0,0.7,253.0,2.69,13.68,47.59359,-54.27349
2022-03-25 17:04:01+00:00,283.0,2.21,279.0,2.41,13.68,47.59359,-54.27349
2022-03-25 17:14:01+00:00,272.0,2.36,273.0,2.68,13.68,47.59359,-54.27349
2022-03-25 17:24:01+00:00,172.0,2.21,173.0,2.37,13.68,47.59359,-54.27349
2022-03-25 17:34:01+00:00,254.0,2.46,257.0,2.81,13.68,47.59359,-54.27349
2022-03-25 17:44:01+00:00,232.0,2.87,233.0,3.23,13.68,47.59359,-54.27349
2022-03-25 17:54:01+00:00,226.0,1.83,244.0,3.04,13.68,47.59359,-54.27349
2022-03-25 18:04:01+00:00,185.0,1.46,186.0,1.7,13.68,47.59359,-54.27349
2022-03-25 18:14:01+00:00,129.0,2.84,131.0,3.13,13.84,47.59359,-54.27349
2022-03-25 18:24:01+00:00,126.0,1.68,236.0,2.43,13.84,47.59359,-54.27349
2022-03-25 18:34:01+00:00,243.0,2.66,250.0,3.65,13.84,47.59359,-54.27349
2022-03-25 18:44:01+00:00,129.0,1.39,244.0,2.58,13.84,47.59359,-54.27349
2022-03-25 18:54:01+00:00,244.0,3.21,244.0,3.74,13.84,47.59359,-54.27349
2022-03-25 19:04:01+00:00,135.0,1.73,138.0,2.0,13.84,47.59359,-54.27349
2022-03-25 19:14:01+00:00,132.0,2.16,128.0,2.37,13.68,47.59359,-54.27349
2022-03-25 19:24:01+00:00,123.0,2.26,122.0,2.38,13.68,47.59359,-54.27349
2022-03-25 19:34:01+00:00,223.0,4.85,224.0,5.03,13.68,47.59359,-54.27349
2022-03-25 19:44:01+00:00,188.0,3.88,218.0,5.33,13.68,47.59359,-54.27349
2022-03-25 19:54:01+00:00,213.0,5.14,218.0,5.89,13.68,47.59359,-54.27349
2022-03-25 20:04:01+00:00,219.0,4.77,221.0,5.52,13.68,47.59359,-54.27349
2022-03-25 20:14:01+00:00,193.0,3.62,222.0,4.83,13.44,47.59359,-54.27349
2022-03-25 20:24:01+00:00,157.0,2.44,152.0,2.77,13.44,47.59359,-54.27349
2022-03-25 20:34:01+00:00,130.0,1.84,136.0,2.12,13.44,47.59359,-54.27349
2022-03-25 20:44:01+00:00,127.0,1.88,132.0,2.14,13.44,47.59359,-54.27349
2022-03-25 20:54:01+00:00,140.0,2.08,145.0,2.29,13.44,47.59359,-54.27349
2022-03-25 21:04:01+00:00,125.0,2.32,120.0,3.19,13.44,47.59359,-54.27349
2022-03-25 21:14:01+00:00,117.0,2.87,122.0,3.14,13.21,47.59359,-54.27349
2022-03-25 21:24:01+00:00,185.0,1.39,193.0,1.56,13.21,47.59359,-54.27349
2022-03-25 21:34:01+00:00,174.0,1.62,172.0,1.84,13.21,47.59359,-54.27349
2022-03-25 21:44:01+00:00,172.0,1.33,163.0,1.45,13.21,47.59359,-54.27349
2022-03-25 21:54:01+00:00,147.0,1.17,158.0,1.47,13.21,47.59359,-54.27349
2022-03-25 22:04:01+00:00,331.0,0.17,273.0,2.67,13.21,47.59359,-54.27349
2022-03-25 22:14:01+00:00,284.0,1.03,276.0,2.74,12.65,47.59359,-54.27349
2022-03-25 22:24:01+00:00,273.0,2.21,274.0,2.65,12.65,47.59359,-54.27349
2022-03-25 22:34:01+00:00,254.0,0.59,263.0,2.6,12.65,47.59359,-54.27349
2022-03-25 22:44:01+00:00,270.0,1.64,283.0,2.06,12.65,47.59359,-54.27349
2022-03-25 22:54:01+00:00,333.0,0.06,266.0,2.51,12.65,47.59359,-54.27349
2022-03-25 23:04:01+00:00,313.0,2.04,317.0,2.43,12.65,47.59359,-54.27349
2022-03-25 23:14:01+00:00,249.0,1.83,251.0,2.65,12.41,47.59359,-54.27349
2022-03-25 23:24:01+00:00,250.0,1.41,232.0,2.65,12.41,47.59359,-54.27349
2022-03-25 23:34:01+00:00,142.0,0.77,125.0,4.25,12.41,47.59359,-54.27349
2022-03-25 23:44:01+00:00,291.0,0.65,94.0,3.57,12.41,47.59359,-54.27349
2022-03-25 23:54:01+00:00,103.0,1.52,116.0,4.52,12.41,47.59359,-54.27349
